Regional Weather Roundup
Issued by NWS State College, PA

Home | Current Version | Previous Version | Text Only | Print | Product List | Glossary Off
Versions: 1 2 3 4 5 6 7 8 9 10 11 12 13 14 15 16 17 18 19 20 21 22 23 24 25 26 27 28 29 30 31 32 33 34 35 36 37 38 39 40 41 42 43 44 45 46 47 48 49 50

000
ASUS41 KCTP 312303
RWRCTP

REGIONAL WEATHER ROUNDUP
NATIONAL WEATHER SERVICE STATE COLLEGE PA
700 PM EDT SUN AUG 31 2014

Note: "fair" indicates few or no clouds below 12,000 feet with no
significant weather and/or obstructions to visibility.

* = STATION THAT DOES NOT REPORT PRECIPITATION /E.G. RAIN...SNOW...ETC/
    THUNDER OR FOG.

PAZ002>004-007>009-013>016-020>023-029>032-010000-
WESTERN PENNSYLVANIA

CITY           SKY/WX    TMP DP  RH WIND       PRES   REMARKS
ERIE           MOCLDY    76  68  76 CALM      29.98R
MEADVILLE      LGT RAIN  72  69  90 S3        30.02S FOG
FRANKLIN*      MOCLDY    72  66  83 S8        30.04S
NEW CASTLE     CLOUDY    74  70  87 CALM      30.02S
BEAVER COUNTY  NOT AVBL
BUTLER*        CLOUDY    72  68  88 CALM      30.05S
PITTSBURGH INT CLOUDY    74  69  85 SW8       30.02F
PITTSBURGH     CLOUDY    74  68  81 S7        30.03S
INDIANA*       MOCLDY    73  70  88 SW3       30.09S
LATROBE        MOCLDY    75  73  94 SW5       30.06R
WASHINGTON CO* CLOUDY    73  70  88 CALM      30.04F
$$

PAZ004>006-010>012-017>019-024>028-033>037-041-042-045-046-049>053-010000-
CENTRAL PENNSYLVANIA

CITY           SKY/WX    TMP DP  RH WIND       PRES   REMARKS
BRADFORD       CLOUDY    69  67  93 VRB3      30.06S
DUBOIS         CLOUDY    71  68  90 SW5       30.05S
CLEARFIELD     CLOUDY    73  68  84 SW7       30.05S
JOHNSTOWN      CLOUDY    69  66  90 SW6       30.09S
ALTOONA        CLOUDY    72  69  90 SW8       30.07R
STATE COLLEGE  MOCLDY    73  70  88 SW3       30.04S
WILLIAMSPORT   MOCLDY    77  68  73 W3        29.98F
SELINSGROVE    CLOUDY    77  72  84 CALM      30.00S
FT INDIANTOWN  CLOUDY    79  73  83 VRB1      30.00S
CAPITAL CITY   CLOUDY    81  69  67 NW9       29.99S
HARRISBURG     CLOUDY    83  70  64 NW8       29.99S
YORK           MOCLDY    79  71  76 W3        30.01R
$$

PAZ038>040-043-044-047-048-054-055-060>062-067>071-010000-
EASTERN PENNSYLVANIA

CITY           SKY/WX    TMP DP  RH WIND       PRES   REMARKS
SCRANTON       CLOUDY    75  70  84 SW6       30.01F
MOUNT POCONO   CLOUDY    72  66  81 W10       30.06S
ALLENTOWN      CLOUDY    76  70  82 SW5       30.00S
QUAKERTOWN*    MOCLDY    75  73  94 CALM      30.02R
READING        MOCLDY    78  74  87 N7        30.00R
LANCASTER      MOCLDY    80  71  74 S5        30.00R
COATESVILLE    MOCLDY    73  73 100 CALM      30.03S
POTTSTOWN      MOCLDY    78  73  84 S6        30.02R
BLUE BELL      CLOUDY    79  73  83 SW8       30.00S
DOYLESTOWN     CLOUDY    76  74  93 SW3       30.00R
WILLOW GROVE   NOT AVBL
NORTH PHILA    LGT RAIN  80  72  76 SW10G20   30.02R
PHILADELPHIA   TSTM      73  71  93 S5        30.01R FOG
$$


USA.gov is the U.S. government's official web portal to all federal, state and local government web resources and services.